• In Netherlands
  • List of Countries
  • For 7 days
  • Water Temperature
  • Satellite Maps
  • Weather Map
  • Weather Widgets
  • user-avatar
    Login

    Hourly Weather Kitzbuhel

    Today, 24 June, Saturday

    Time Temperature Precipitation Wind Pressure Humidity
    00:00 +15°C° 0 mm 1 mps 680 mmHg 93%
    01:00 +15°C° 0 mm 1 mps 679 mmHg 94%
    02:00 +15°C° 0 mm 1 mps 679 mmHg 95%
    03:00 +15°C° 0 mm 1 mps 679 mmHg 95%
    04:00 +14°C° 0 mm 1 mps 679 mmHg 95%
    05:00 +16°C° 0 mm 1 mps 679 mmHg 92%
    06:00 +19°C° 0 mm 1 mps 680 mmHg 89%
    07:00 +21°C° 0 mm 1 mps 680 mmHg 86%
    08:00 +22°C° 0.2 mm 1 mps 680 mmHg 79%
    09:00 +24°C° 0.2 mm 1 mps 681 mmHg 73%
    10:00 +25°C° 0.2 mm 1 mps 681 mmHg 66%
    11:00 +25°C° 0.4 mm 1 mps 681 mmHg 67%
    12:00 +26°C° 0.4 mm 1 mps 680 mmHg 67%
    13:00 +26°C° 0.4 mm 1 mps 680 mmHg 67%
    14:00 +25°C° 0.9 mm 2 mps 680 mmHg 71%
    15:00 +25°C° 0.9 mm 2 mps 680 mmHg 75%
    16:00 +24°C° 0.9 mm 2 mps 679 mmHg 78%
    17:00 +23°C° 1.4 mm 1 mps 679 mmHg 83%
    18:00 +22°C° 1.4 mm 1 mps 679 mmHg 88%
    19:00 +21°C° 1.4 mm 1 mps 679 mmHg 93%
    20:00 +20°C° 1.4 mm 1 mps 679 mmHg 94%
    21:00 +16°C° 1.4 mm 0 mps 678 mmHg 95%
    22:00 +14°C° 1.4 mm 0 mps 678 mmHg 96%
    23:00 +13°C° 0.6 mm 0 mps 678 mmHg 97%

    Tomorrow, 25 June, Sunday

    Time Temperature Precipitation Wind Pressure Humidity
    00:00 +13°C° 0.6 mm 0 mps 678 mmHg 97%
    01:00 +12°C° 0.6 mm 0 mps 677 mmHg 97%
    02:00 +12°C° 0.3 mm 0 mps 677 mmHg 97%
    03:00 +12°C° 0.3 mm 0 mps 677 mmHg 97%
    04:00 +12°C° 0.3 mm 0 mps 676 mmHg 98%
    05:00 +14°C° 0.8 mm 0 mps 677 mmHg 96%
    06:00 +18°C° 0.8 mm 1 mps 677 mmHg 95%
    07:00 +19°C° 0.8 mm 1 mps 678 mmHg 93%
    08:00 +19°C° 1.7 mm 1 mps 678 mmHg 93%
    09:00 +19°C° 1.7 mm 1 mps 678 mmHg 92%
    10:00 +20°C° 1.7 mm 1 mps 678 mmHg 91%
    11:00 +19°C° 2.9 mm 1 mps 677 mmHg 93%
    12:00 +18°C° 2.9 mm 1 mps 677 mmHg 94%
    13:00 +18°C° 2.9 mm 1 mps 677 mmHg 96%
    14:00 +16°C° 1.7 mm 1 mps 677 mmHg 95%
    15:00 +16°C° 1.7 mm 2 mps 677 mmHg 94%
    16:00 +16°C° 1.7 mm 2 mps 677 mmHg 94%
    17:00 +16°C° 0.2 mm 2 mps 677 mmHg 92%
    18:00 +16°C° 0.2 mm 1 mps 677 mmHg 91%
    19:00 +16°C° 0.2 mm 1 mps 677 mmHg 90%
    20:00 +15°C° 0 mm 1 mps 677 mmHg 89%
    21:00 +14°C° 0 mm 1 mps 677 mmHg 89%
    22:00 +12°C° 0 mm 2 mps 677 mmHg 88%
    23:00 +12°C° 0 mm 2 mps 677 mmHg 88%

    Day after tomorrow, 26 June, Monday

    Time Temperature Precipitation Wind Pressure Humidity
    00:00 +12°C° 0 mm 2 mps 677 mmHg 88%
    01:00 +10°C° 0 mm 2 mps 676 mmHg 88%
    02:00 +11°C° 0 mm 1 mps 676 mmHg 89%
    03:00 +10°C° 0 mm 1 mps 676 mmHg 89%
    04:00 +10°C° 0 mm 1 mps 676 mmHg 89%
    05:00 +12°C° 0 mm 1 mps 677 mmHg 85%
    06:00 +15°C° 0 mm 1 mps 677 mmHg 81%
    07:00 +16°C° 0 mm 0 mps 678 mmHg 77%
    08:00 +20°C° 0 mm 1 mps 678 mmHg 71%
    09:00 +21°C° 0 mm 1 mps 678 mmHg 64%
    10:00 +23°C° 0 mm 1 mps 679 mmHg 57%
    11:00 +24°C° 0 mm 1 mps 678 mmHg 55%
    12:00 +25°C° 0 mm 1 mps 678 mmHg 53%
    13:00 +26°C° 0 mm 1 mps 678 mmHg 51%
    14:00 +25°C° 0 mm 2 mps 678 mmHg 55%
    15:00 +25°C° 0 mm 2 mps 677 mmHg 58%
    16:00 +25°C° 0 mm 2 mps 677 mmHg 62%
    17:00 +24°C° 0.3 mm 2 mps 677 mmHg 71%
    18:00 +21°C° 0.3 mm 2 mps 677 mmHg 79%
    19:00 +21°C° 0.3 mm 1 mps 677 mmHg 88%
    20:00 +19°C° 0.4 mm 1 mps 676 mmHg 90%
    21:00 +18°C° 0.4 mm 1 mps 676 mmHg 93%
    22:00 +15°C° 0.4 mm 1 mps 676 mmHg 95%
    23:00 +15°C° 0.3 mm 1 mps 676 mmHg 94%

    27 June, Tuesday

    Time Temperature Precipitation Wind Pressure Humidity
    00:00 +16°C° 0.3 mm 2 mps 676 mmHg 94%
    01:00 +16°C° 0.3 mm 2 mps 676 mmHg 93%
    02:00 +16°C° 0.1 mm 2 mps 675 mmHg 93%
    03:00 +16°C° 0.1 mm 2 mps 675 mmHg 93%
    04:00 +15°C° 0.1 mm 2 mps 675 mmHg 93%
    05:00 +16°C° 0.1 mm 1 mps 675 mmHg 91%
    06:00 +18°C° 0.1 mm 1 mps 675 mmHg 89%
    07:00 +19°C° 0.1 mm 1 mps 676 mmHg 87%
    08:00 +20°C° 0.2 mm 1 mps 676 mmHg 82%
    09:00 +22°C° 0.2 mm 1 mps 676 mmHg 77%
    10:00 +23°C° 0.2 mm 1 mps 676 mmHg 71%
    11:00 +23°C° 0.8 mm 1 mps 676 mmHg 73%
    12:00 +24°C° 0.8 mm 2 mps 676 mmHg 74%
    13:00 +24°C° 0.8 mm 2 mps 676 mmHg 75%
    14:00 +24°C° 1 mm 2 mps 675 mmHg 76%
    15:00 +24°C° 1 mm 1 mps 675 mmHg 77%
    16:00 +24°C° 1 mm 1 mps 675 mmHg 77%
    17:00 +23°C° 0.8 mm 1 mps 675 mmHg 81%
    18:00 +23°C° 0.8 mm 1 mps 675 mmHg 85%
    19:00 +22°C° 0.8 mm 1 mps 675 mmHg 89%
    20:00 +20°C° 0.2 mm 1 mps 674 mmHg 90%
    21:00 +19°C° 0.2 mm 1 mps 674 mmHg 91%
    22:00 +16°C° 0.2 mm 2 mps 674 mmHg 92%
    23:00 +16°C° 0.1 mm 2 mps 674 mmHg 92%

    28 June, Wednesday

    Time Temperature Precipitation Wind Pressure Humidity
    00:00 +15°C° 0.1 mm 2 mps 674 mmHg 91%
    01:00 +15°C° 0.1 mm 2 mps 674 mmHg 91%
    02:00 +15°C° 0.1 mm 2 mps 674 mmHg 90%
    03:00 +15°C° 0.1 mm 2 mps 673 mmHg 90%
    04:00 +15°C° 0.1 mm 2 mps 673 mmHg 89%
    05:00 +16°C° 0 mm 2 mps 673 mmHg 87%
    06:00 +18°C° 0 mm 2 mps 674 mmHg 84%
    07:00 +19°C° 0 mm 2 mps 674 mmHg 82%
    08:00 +21°C° 0 mm 2 mps 674 mmHg 74%
    09:00 +24°C° 0 mm 2 mps 674 mmHg 65%
    10:00 +26°C° 0 mm 2 mps 674 mmHg 57%
    11:00 +27°C° 0.1 mm 2 mps 674 mmHg 56%
    12:00 +27°C° 0.1 mm 2 mps 674 mmHg 55%
    13:00 +28°C° 0.1 mm 2 mps 674 mmHg 54%
    14:00 +28°C° 0.2 mm 2 mps 674 mmHg 56%
    15:00 +28°C° 0.2 mm 2 mps 674 mmHg 59%
    16:00 +28°C° 0.2 mm 3 mps 673 mmHg 61%
    17:00 +26°C° 0.3 mm 3 mps 673 mmHg 67%
    18:00 +25°C° 0.3 mm 3 mps 673 mmHg 74%
    19:00 +22°C° 0.3 mm 3 mps 673 mmHg 80%
    20:00 +21°C° 0.1 mm 2 mps 673 mmHg 82%
    21:00 +19°C° 0.1 mm 2 mps 673 mmHg 85%
    22:00 +17°C° 0.1 mm 2 mps 673 mmHg 87%
    23:00 +17°C° 0 mm 3 mps 673 mmHg 86%

    29 June, Thursday

    Time Temperature Precipitation Wind Pressure Humidity
    00:00 +17°C° 0 mm 3 mps 673 mmHg 85%
    01:00 +17°C° 0 mm 3 mps 673 mmHg 84%
    02:00 +17°C° 0 mm 3 mps 673 mmHg 84%
    03:00 +16°C° 0 mm 3 mps 672 mmHg 85%
    04:00 +16°C° 0 mm 3 mps 672 mmHg 85%
    05:00 +17°C° 0.1 mm 3 mps 673 mmHg 84%
    06:00 +18°C° 0.1 mm 3 mps 673 mmHg 84%
    07:00 +19°C° 0.1 mm 3 mps 674 mmHg 84%
    08:00 +20°C° 0 mm 3 mps 674 mmHg 78%
    09:00 +22°C° 0 mm 3 mps 674 mmHg 72%
    10:00 +25°C° 0 mm 3 mps 674 mmHg 65%
    11:00 +26°C° 0 mm 3 mps 674 mmHg 61%
    12:00 +27°C° 0 mm 4 mps 674 mmHg 57%
    13:00 +28°C° 0 mm 4 mps 674 mmHg 53%
    14:00 +28°C° 0.2 mm 4 mps 673 mmHg 55%
    15:00 +28°C° 0.2 mm 4 mps 673 mmHg 57%
    16:00 +28°C° 0.2 mm 4 mps 672 mmHg 60%
    17:00 +26°C° 0.1 mm 4 mps 672 mmHg 66%
    18:00 +25°C° 0.1 mm 3 mps 672 mmHg 72%
    19:00 +22°C° 0.1 mm 3 mps 671 mmHg 78%
    20:00 +20°C° 0.2 mm 3 mps 671 mmHg 83%
    21:00 +18°C° 0.2 mm 3 mps 671 mmHg 87%
    22:00 +16°C° 0.2 mm 2 mps 671 mmHg 92%
    23:00 +16°C° 0.5 mm 2 mps 670 mmHg 93%
    Show more